Content
SEND FEEDBACK

Daily
Averages
Monthly
Summary
United States of America

JAKOLOF BAY, ALASKA


Home > North America > United States > Alaska
Elevation: 10 feet     Latitude: 59 28N     Longitude: 151 33W

WEATHER
 
SELECT A DAY
Number of Records: 190,910;   Date Range: 5/2/97 - 7/23/14
 
SHARE

PRINT THIS DATA

[ ← Previous Day ]
WEATHER ALMANAC - JANUARY 31, 2013
[ Next Day → ]
[ °C ]   °F
Weather ElementAverageHighLow
Temperature33.5 °F36 °F (2:53 pm)30.2 °F (8:23 am)
Dewpoint32.2 °F35.1 °F (2:53 pm)28.9 °F (8:53 am)
Humidity95.1 %100 % (1:20 am)92 % (3:53 am)
Barometer29.83 in29.89 in (8:53 pm)29.70 in (12:53 am)
Wind Speed5 mph8.1 mph (6:33 am)
Wind Gust21.9 mph (11:20 am)
Weather ElementAverage
Visibility5.7 mi
Wind DirectionSE (137.8 °)

Weather ElementTotal
Precipitation0.08 in
Heating Degree Days31.9 (Base 65)
Averaged from 58 records on January 31, 2013
WEATHER CONDITIONS BREAKOUT
WIND DIRECTION BREAKOUT
WEATHER BY HOUR - JANUARY 31, 2013
[ °C ]   °F
Local TimeTemperatureDewpointHumidityBarometerVisibilityWind DirectionWind SpeedGust SpeedPrecipitationEventsConditions
12:53 AM35.1 °F34.0 °F96 %29.70 in7.0 miSW (220°)3.5 mph0.01 inRainLight Rain
1:20 AM33.8 °F33.8 °F100 %29.71 in5.0 miSSW (200°)5.8 mph0.01 inRainLight Rain
1:53 AM34.0 °F33.1 °F96 %29.72 in6.0 miWNW (290°)5.8 mph0.02 inRainLight Rain
3:46 AM35.6 °F33.8 °F93 %29.74 in6.0 miCalm0.02 inRainLight Rain
3:53 AM35.1 °F33.1 °F92 %29.75 in6.0 miVariable3.5 mph0.02 inRainLight Rain
4:53 AM34.0 °F33.1 °F96 %29.76 in10.0 miCalm0.00 inOvercast
5:23 AM33.8 °F33.8 °F100 %29.76 in10.0 miSSW (210°)5.8 mphOvercast
5:53 AM34.0 °F33.1 °F96 %29.77 in10.0 miSSW (210°)3.5 mph0.00 inOvercast
6:11 AM33.8 °F33.8 °F100 %29.77 in10.0 miSSW (200°)6.9 mphOvercast
6:33 AM33.8 °F33.8 °F100 %29.78 in10.0 miSSW (210°)8.1 mphOvercast
6:53 AM34.0 °F33.1 °F96 %29.78 in10.0 miCalmOvercast
7:20 AM33.8 °F32.0 °F93 %29.78 in10.0 miCalmMostly Cloudy
7:33 AM32.0 °F30.2 °F93 %29.78 in10.0 miSSW (210°)8.1 mphMostly Cloudy
7:53 AM32.0 °F30.0 °F92 %29.78 in2.0 miSouth (190°)6.9 mphMostly Cloudy
8:02 AM32.0 °F30.2 °F93 %29.78 in1.5 miCalmMostly Cloudy
8:23 AM30.2 °F30.2 °F100 %29.79 in0.8 miVariable4.6 mphMist
8:53 AM30.9 °F28.9 °F92 %29.80 in1.2 miCalmScattered Clouds
9:08 AM30.2 °F30.2 °F100 %29.80 in2.0 miSSW (210°)8.1 mphMostly Cloudy
9:20 AM30.2 °F30.2 °F100 %29.80 in3.0 miSSW (210°)8.1 mphMostly Cloudy
9:53 AM32.0 °F30.9 °F96 %29.81 in10.0 miSW (220°)4.6 mphOvercast
10:35 AM32.0 °F30.2 °F93 %29.82 in0.5 miVariable4.6 mphFogFog
10:44 AM32.0 °F30.2 °F93 %29.82 in1.0 miCalmMist
10:53 AM30.9 °F30.0 °F96 %29.83 in0.2 miSSW (200°)6.9 mphFogLight Freezing Fog
11:10 AM32.0 °F30.2 °F93 %29.83 in1.0 miSSW (210°)4.6 mphMist
11:17 AM32.0 °F30.2 °F93 %29.84 in2.0 miCalmScattered Clouds
11:20 AM32.0 °F30.2 °F93 %29.84 in1.8 miNorth (350°)8.1 mph21.9 mphMostly Cloudy
11:27 AM32.0 °F32.0 °F100 %29.84 in0.2 miCalmFogFog
11:46 AM30.2 °F30.2 °F100 %29.85 in0.8 miSSW (210°)6.9 mphOvercast
11:53 AM32.0 °F30.9 °F96 %29.86 in1.0 miSSW (200°)8.1 mphOvercast
12:09 PM33.8 °F32.0 °F93 %29.86 in3.0 miSSW (210°)6.9 mphOvercast
12:18 PM33.8 °F32.0 °F93 %29.86 in6.0 miWest (270°)5.8 mphOvercast
12:53 PM34.0 °F33.1 °F96 %29.87 in5.0 miWest (280°)6.9 mphOvercast
1:53 PM35.1 °F34.0 °F96 %29.86 in6.0 miWest (280°)5.8 mphOvercast
2:53 PM36.0 °F35.1 °F97 %29.86 in8.0 miNW (310°)6.9 mphOvercast
3:09 PM35.6 °F33.8 °F93 %29.86 in10.0 miNNW (330°)5.8 mphMostly Cloudy
3:18 PM35.6 °F33.8 °F93 %29.86 in10.0 miVariable5.8 mphMostly Cloudy
3:27 PM35.6 °F33.8 °F93 %29.86 in10.0 miNNW (330°)4.6 mphScattered Clouds
3:38 PM35.6 °F33.8 °F93 %29.86 in10.0 miNW (320°)6.9 mphMostly Cloudy
3:53 PM36.0 °F34.0 °F93 %29.86 in10.0 miVariable5.8 mphMostly Cloudy
4:44 PM35.6 °F33.8 °F93 %29.86 in10.0 miVariable6.9 mphOvercast
4:53 PM35.1 °F34.0 °F96 %29.87 in10.0 miWest (280°)5.8 mphOvercast
5:53 PM34.0 °F33.1 °F96 %29.88 in10.0 miVariable4.6 mphOvercast
6:53 PM34.0 °F33.1 °F96 %29.88 in7.0 miWNW (290°)5.8 mphOvercast
7:51 PM33.8 °F33.8 °F100 %29.88 in6.0 miWNW (290°)6.9 mphOvercast
7:53 PM34.0 °F33.1 °F96 %29.88 in5.0 miWNW (290°)6.9 mphOvercast
8:23 PM33.8 °F32.0 °F93 %29.88 in10.0 miVariable5.8 mphOvercast
8:45 PM33.8 °F33.8 °F100 %29.88 in9.0 miVariable4.6 mphOvercast
8:53 PM34.0 °F33.1 °F96 %29.89 in9.0 miCalmOvercast
9:53 PM34.0 °F32.0 °F92 %29.89 in6.0 miVariable5.8 mphOvercast
10:18 PM33.8 °F32.0 °F93 %29.89 in8.0 miVariable3.5 mphOvercast
10:24 PM33.8 °F32.0 °F93 %29.89 in2.5 miSSW (200°)6.9 mphOvercast
10:27 PM33.8 °F32.0 °F93 %29.89 in1.8 miVariable5.8 mphOvercast
10:34 PM33.8 °F32.0 °F93 %29.89 in3.0 miVariable5.8 mph19.6 mphOvercast
10:42 PM33.8 °F32.0 °F93 %29.89 in2.5 miWest (280°)5.8 mphOvercast
10:46 PM33.8 °F32.0 °F93 %29.89 in1.8 miVariable3.5 mphOvercast
10:53 PM33.1 °F32.0 °F96 %29.89 in1.2 miWest (280°)5.8 mphOvercast
11:13 PM33.8 °F32.0 °F93 %29.89 in3.0 miVariable6.9 mphOvercast
11:53 PM33.1 °F30.9 °F92 %29.89 in10.0 miVariable6.9 mphOvercast
Hourly data recorded from PASO, located miles away from Jakolof Bay, Alaska







STORIES FROM OUR PARTNERS